Terminal Aerodrome Forecast
Issued by NWS Binghamton, NY

Home | Current Version | Previous Version | Text Only | Print | Product List | Glossary On
Versions: 1 2 3 4 5 6 7 8 9 10 11 12 13 14 15 16 17 18 19 20 21 22
000
FTUS41 KBGM 280900 AAB
TAFAVP
TAF AMD
KAVP 280927Z 2809/2906 36008KT P6SM SCT025 OVC040
      TEMPO 2809/2812 -SHSN OVC025
     FM281400 34012G20KT P6SM OVC040
     FM290200 33010KT P6SM BKN045=

USA.gov is the U.S. government's official web portal to all federal, state and local government web resources and services.